When you browse on this site, cookies collect data to enhance your experience and personalize the content and advertising you see.
Visit our Privacy Policy to learn more. By continuing to use the site, you agree to this use of cookies and data.
  • In United Kingdom
  • List of Countries
  • For 7 days
  • Water Temperature
  • Satellite Maps
  • Weather Map
  • Weather Widgets
  • user-avatar
    Login

    Hourly Weather Shapran

    Today, 19 June, Wednesday

    Time Temperature Precipitation Wind Pressure Humidity
    00:00 +19°C° 0 mm 0 mps 744 mmHg 74%
    01:00 +20°C° 0.1 mm 1 mps 744 mmHg 77%
    02:00 +20°C° 0.1 mm 1 mps 744 mmHg 80%
    03:00 +20°C° 0 mm 1 mps 744 mmHg 80%
    04:00 +20°C° 0.2 mm 1 mps 744 mmHg 83%
    05:00 +21°C° 0.2 mm 1 mps 744 mmHg 85%
    06:00 +21°C° 0.2 mm 1 mps 744 mmHg 87%
    07:00 +23°C° 0 mm 2 mps 745 mmHg 83%
    08:00 +24°C° 0 mm 2 mps 745 mmHg 78%
    09:00 +26°C° 0 mm 3 mps 745 mmHg 74%
    10:00 +26°C° 0.4 mm 3 mps 745 mmHg 69%
    11:00 +27°C° 0.4 mm 3 mps 745 mmHg 65%
    12:00 +28°C° 0.4 mm 4 mps 745 mmHg 61%
    13:00 +28°C° 0.4 mm 4 mps 745 mmHg 62%
    14:00 +28°C° 0.4 mm 4 mps 745 mmHg 63%
    15:00 +28°C° 0.4 mm 4 mps 745 mmHg 64%
    16:00 +27°C° 0.1 mm 4 mps 745 mmHg 65%
    17:00 +27°C° 0.1 mm 4 mps 745 mmHg 66%
    18:00 +27°C° 0.1 mm 4 mps 745 mmHg 67%
    19:00 +25°C° 0 mm 4 mps 745 mmHg 71%
    20:00 +22°C° 0 mm 4 mps 745 mmHg 75%
    21:00 +21°C° 0 mm 3 mps 745 mmHg 78%
    22:00 +20°C° 0 mm 3 mps 746 mmHg 79%
    23:00 +19°C° 0 mm 3 mps 746 mmHg 80%

    Tomorrow, 20 June, Thursday

    Time Temperature Precipitation Wind Pressure Humidity
    00:00 +19°C° 0 mm 3 mps 746 mmHg 81%
    01:00 +18°C° 0 mm 3 mps 746 mmHg 82%
    02:00 +17°C° 0 mm 3 mps 746 mmHg 83%
    03:00 +17°C° 0 mm 3 mps 746 mmHg 83%
    04:00 +17°C° 0 mm 3 mps 746 mmHg 84%
    05:00 +18°C° 0 mm 3 mps 747 mmHg 84%
    06:00 +18°C° 0 mm 3 mps 747 mmHg 84%
    07:00 +20°C° 0 mm 3 mps 747 mmHg 78%
    08:00 +22°C° 0 mm 4 mps 747 mmHg 73%
    09:00 +23°C° 0 mm 4 mps 747 mmHg 68%
    10:00 +25°C° 0 mm 4 mps 747 mmHg 64%
    11:00 +26°C° 0 mm 4 mps 747 mmHg 60%
    12:00 +28°C° 0 mm 4 mps 747 mmHg 56%
    13:00 +28°C° 0 mm 4 mps 747 mmHg 56%
    14:00 +28°C° 0 mm 4 mps 747 mmHg 55%
    15:00 +28°C° 0 mm 4 mps 747 mmHg 54%
    16:00 +28°C° 0 mm 4 mps 747 mmHg 57%
    17:00 +28°C° 0 mm 4 mps 747 mmHg 60%
    18:00 +27°C° 0 mm 3 mps 746 mmHg 63%
    19:00 +26°C° 0 mm 3 mps 747 mmHg 67%
    20:00 +24°C° 0 mm 3 mps 747 mmHg 71%
    21:00 +21°C° 0 mm 3 mps 747 mmHg 75%
    22:00 +20°C° 0 mm 2 mps 747 mmHg 75%
    23:00 +20°C° 0 mm 2 mps 747 mmHg 76%

    Day after tomorrow, 21 June, Friday

    Time Temperature Precipitation Wind Pressure Humidity
    00:00 +19°C° 0 mm 2 mps 747 mmHg 76%
    01:00 +19°C° 0 mm 2 mps 747 mmHg 78%
    02:00 +18°C° 0 mm 3 mps 747 mmHg 79%
    03:00 +18°C° 0 mm 3 mps 747 mmHg 81%
    04:00 +18°C° 0 mm 3 mps 748 mmHg 81%
    05:00 +18°C° 0 mm 3 mps 748 mmHg 80%
    06:00 +19°C° 0 mm 3 mps 748 mmHg 80%
    07:00 +21°C° 0 mm 3 mps 748 mmHg 75%
    08:00 +24°C° 0 mm 3 mps 749 mmHg 70%
    09:00 +26°C° 0 mm 3 mps 749 mmHg 65%
    10:00 +27°C° 0 mm 4 mps 749 mmHg 60%
    11:00 +28°C° 0 mm 4 mps 749 mmHg 55%
    12:00 +29°C° 0 mm 4 mps 749 mmHg 50%
    13:00 +29°C° 0 mm 4 mps 748 mmHg 49%
    14:00 +29°C° 0 mm 3 mps 748 mmHg 48%
    15:00 +30°C° 0 mm 3 mps 748 mmHg 48%
    16:00 +29°C° 0 mm 3 mps 748 mmHg 51%
    17:00 +29°C° 0 mm 3 mps 748 mmHg 54%
    18:00 +29°C° 0 mm 3 mps 748 mmHg 57%
    19:00 +27°C° 0 mm 3 mps 748 mmHg 60%
    20:00 +25°C° 0 mm 3 mps 748 mmHg 63%
    21:00 +22°C° 0 mm 3 mps 748 mmHg 66%
    22:00 +21°C° 0 mm 3 mps 748 mmHg 68%
    23:00 +21°C° 0 mm 3 mps 748 mmHg 71%

    22 June, Saturday

    Time Temperature Precipitation Wind Pressure Humidity
    00:00 +20°C° 0 mm 3 mps 748 mmHg 74%
    01:00 +19°C° 0 mm 2 mps 748 mmHg 74%
    02:00 +19°C° 0 mm 2 mps 748 mmHg 75%
    03:00 +18°C° 0 mm 2 mps 748 mmHg 76%
    04:00 +19°C° 0 mm 2 mps 749 mmHg 76%
    05:00 +19°C° 0 mm 2 mps 749 mmHg 76%
    06:00 +20°C° 0 mm 2 mps 749 mmHg 76%
    07:00 +22°C° 0 mm 3 mps 749 mmHg 72%
    08:00 +25°C° 0 mm 3 mps 749 mmHg 66%
    09:00 +27°C° 0 mm 3 mps 749 mmHg 61%
    10:00 +28°C° 0 mm 3 mps 749 mmHg 56%
    11:00 +29°C° 0 mm 3 mps 749 mmHg 51%
    12:00 +30°C° 0 mm 3 mps 749 mmHg 47%
    13:00 +30°C° 0 mm 3 mps 749 mmHg 45%
    14:00 +30°C° 0 mm 3 mps 749 mmHg 44%
    15:00 +31°C° 0 mm 3 mps 748 mmHg 42%
    16:00 +30°C° 0 mm 3 mps 748 mmHg 47%
    17:00 +30°C° 0 mm 3 mps 748 mmHg 51%
    18:00 +30°C° 0 mm 3 mps 748 mmHg 56%
    19:00 +28°C° 0 mm 3 mps 748 mmHg 59%
    20:00 +26°C° 0 mm 3 mps 748 mmHg 62%
    21:00 +24°C° 0 mm 3 mps 748 mmHg 66%
    22:00 +22°C° 0 mm 3 mps 748 mmHg 68%
    23:00 +21°C° 0 mm 3 mps 748 mmHg 69%

    23 June, Sunday

    Time Temperature Precipitation Wind Pressure Humidity
    00:00 +21°C° 0 mm 3 mps 748 mmHg 71%
    01:00 +20°C° 0 mm 3 mps 748 mmHg 71%
    02:00 +20°C° 0 mm 3 mps 749 mmHg 70%
    03:00 +19°C° 0 mm 3 mps 749 mmHg 70%
    04:00 +20°C° 0 mm 3 mps 749 mmHg 70%
    05:00 +20°C° 0 mm 3 mps 749 mmHg 70%
    06:00 +20°C° 0 mm 3 mps 749 mmHg 71%
    07:00 +22°C° 0 mm 3 mps 749 mmHg 66%
    08:00 +25°C° 0 mm 3 mps 749 mmHg 61%
    09:00 +27°C° 0 mm 3 mps 749 mmHg 56%
    10:00 +29°C° 0 mm 4 mps 749 mmHg 51%
    11:00 +30°C° 0 mm 4 mps 749 mmHg 47%
    12:00 +32°C° 0 mm 4 mps 749 mmHg 42%
    13:00 +33°C° 0 mm 4 mps 749 mmHg 43%
    14:00 +33°C° 0 mm 4 mps 749 mmHg 43%
    15:00 +33°C° 0 mm 4 mps 748 mmHg 43%
    16:00 +33°C° 0 mm 4 mps 748 mmHg 46%
    17:00 +31°C° 0 mm 3 mps 748 mmHg 50%
    18:00 +31°C° 0 mm 3 mps 748 mmHg 54%
    19:00 +29°C° 0 mm 3 mps 748 mmHg 57%
    20:00 +27°C° 0 mm 3 mps 748 mmHg 60%
    21:00 +25°C° 0 mm 3 mps 748 mmHg 63%
    22:00 +24°C° 0 mm 3 mps 748 mmHg 64%
    23:00 +22°C° 0 mm 3 mps 748 mmHg 65%

    24 June, Monday

    Time Temperature Precipitation Wind Pressure Humidity
    00:00 +21°C° 0 mm 3 mps 748 mmHg 65%
    01:00 +21°C° 0 mm 3 mps 748 mmHg 65%
    02:00 +21°C° 0 mm 3 mps 748 mmHg 65%
    03:00 +20°C° 0 mm 3 mps 748 mmHg 66%
    04:00 +20°C° 0 mm 3 mps 748 mmHg 67%
    05:00 +20°C° 0 mm 3 mps 748 mmHg 69%
    06:00 +21°C° 0 mm 2 mps 748 mmHg 70%
    07:00 +22°C° 0 mm 3 mps 748 mmHg 66%
    08:00 +25°C° 0 mm 3 mps 748 mmHg 62%
    09:00 +27°C° 0 mm 3 mps 748 mmHg 58%
    10:00 +28°C° 0 mm 3 mps 748 mmHg 54%
    11:00 +30°C° 0 mm 3 mps 748 mmHg 49%
    12:00 +31°C° 0 mm 3 mps 748 mmHg 45%
    13:00 +31°C° 0 mm 3 mps 748 mmHg 44%
    14:00 +31°C° 0 mm 3 mps 747 mmHg 44%
    15:00 +31°C° 0 mm 3 mps 747 mmHg 44%
    16:00 +31°C° 0 mm 3 mps 747 mmHg 48%
    17:00 +30°C° 0 mm 3 mps 747 mmHg 52%
    18:00 +29°C° 0 mm 3 mps 746 mmHg 56%
    19:00 +27°C° 0.2 mm 3 mps 746 mmHg 59%
    20:00 +26°C° 0.2 mm 3 mps 746 mmHg 62%
    21:00 +24°C° 0.2 mm 3 mps 746 mmHg 65%
    22:00 +24°C° 0 mm 3 mps 746 mmHg 64%
    23:00 +24°C° 0 mm 2 mps 746 mmHg 64%
    Show more